DELTA 1 DEB

Satellite information

Favourite Embed

Satellite Type and Status

DEBRISIN ORBIT

Key statistics

Satellite DELTA 1 DEB at a glance.

Uptime

19036

Days in orbit

Revolutions

≈ 12.5

Per day

Orbit

SSO

Sun Synchronous Orbit

Inclination

101.8

Latest

Satellite identification and parameters

Extended collection of information and parameters for DELTA 1 DEB.

Object identification

Identified? True

Debris? True

Object name: DELTA 1 DEB

International designator: 1973-086HD

Object number (NORAD): 19291

Object ID (CCSDS): 19291

Country: UNITED STATES OF AMERICA (US)

Current information (Y/N): Y

RCS size: SMALL

Orbital parameters

Period: 115.059 minutes

Inclination: 101.8149 deg

SMA: 7836.215 km

Apoapsis: 1481.112 km

Periapsis: 1435.048 km

RAAN: 327.1924 deg

Eccentricy: 0.00293919

Argument of periapsis: 146.9526 deg

Mean anomaly: 9.8724 deg

Mean motion: 12.51535784 rev/day

Mean motion (dot): 0.00000219 rev/day2

B* drag term: 0.0017011584 1/REarth

Two-line elements (TLE)

Creation date: Dec. 18, 2025, 8:02 p.m.

Reference frame: TEME

Reference center: EARTH

Epoch: Dec. 18, 2025, 9:29 a.m. UTC

TLE line 0: 0 DELTA 1 DEB

TLE line 1: 1 19291U 73086HD 25352.39540478 .00000219 00000-0 17012-2 0 9998

TLE line 2: 2 19291 101.8149 327.1924 0029392 146.9526 9.8724 12.51535784710867

Live tracking on map

Real-time ground track for satellite DELTA 1 DEB.

In-orbit conjunctions

A list of the most updated potential collisions computed for object DELTA 1 DEB.

Target Orbit TCA Probability of collision Miss distance Type
COSMOS 2015 LEO 2025-07-14 00:36:56 0.0001228299 983.0 (m) PAYLOAD
COSMOS 1034 LEO 2024-09-01 08:04:23 0.001244013 128.0 (m) PAYLOAD

Associated space launch

Meteorological satellite using radiometric imaging

DELTA 1 DEB was lifted into orbit during the mission ‘Delta 0300 | NOAA 3’, on board a Delta 0300 space rocket.

The launch took place on Nov. 6, 1973, 5:02 p.m. from Space Launch Complex 2W.

For more information about the launch, click the button.

Launch to space Delta 0300 | NOAA 3
Delta 0300 | NOAA 3

Agency: N/A

Status: Launch Successful

Launch date: Nov. 6, 1973, 5:02 p.m. UTC

Rocket: Delta 0300

Launch pad: Space Launch Complex 2W

Location: Vandenberg SFB, CA, USA

...

Latest news about this satellite

There are no fresh news available about this satellite. Check back as we update our databases every day.


Newsletter sign-up

Weekly statistics, charts and insights to help you stay on top of the space industry.